Terminal Aerodrome Forecast
Issued by NWS Raleigh/Durham, NC

Current Version | Previous Version | Text Only | Print | Product List | Glossary On
Versions: 1 2 3 4 5 6 7 8 9 10 11 12 13 14 15 16 17 18 19 20 21 22 23
000 FTUS42 KRAH 192331 TAFFAY TAF KFAY 192331Z 2000/2024 03003KT P6SM OVC250 FM201000 06006KT P6SM OVC120 FM201600 07006KT P6SM OVC050 TEMPO 2016/2020 4SM -RA BR OVC030=

USA.gov is the U.S. government's official web portal to all federal, state and local government web resources and services.